Fairbanks International Airport Fairbanks US
ICAO: PAFA
IATA: FAI
Category: Large
Scheduled Services:

Elevation: 439 ft
TransAlt. 18000 ft.

Airport Communications:
APP:118.6
ASOS:119.025
ATIS:124.4
TWEB:108.2
CLNC DEL:127.6
DEP:32.71
RDO:122.6
GND:121.9
EIELSON RANGE CON:125.3
TWR:118.3
UNICOM:122.95

PAFA Zoom In..

If you have problems with the map follow the link
https://www.worldairports.se/pages/airport.php?
ICAO=PAFA

Runways:

(A) RW 02 length 2900 ft width 75 ft
---- / hdg 17

(B) RW 02L length 11800 ft width 150 ft
ILS 109.10 / hdg 17

(C) RW 02R length 6501 ft width 100 ft
---- / hdg 17

(D) RW 20 length 2900 ft width 75 ft
---- / hdg 197

(E) RW 20L length 6501 ft width 100 ft
---- / hdg 197

(F) RW 20R length 11800 ft width 150 ft
ILS 110.30 / hdg 197

Location; PAFA
Day. 20 / Time. 20.53 Zulu
* Altimeter: 30.12
* Temperature: -14° c. -6.8°f.
* Wind from: 040° Speed 03 kn.
Dewpoint: -17° c.
Visibility: 10 Statute Miles.
Clouds: Few 1000 ft.
Clouds: Broken 2000 ft.

PAFA 202053Z 04003KT 10SM FEW100 BKN200 M14/M17 A3012 RMK AO2 SLP214 T11391167 58025 PNO


Wind From 040°
Speed 03 kn.

 
 
jpsmedia.com for Web Design worldairports.se 2019   terms of use